Miscellaneous Local Product
Issued by NWS Hastings, NE

Home | Current Version | Previous Version | Graphics & Text | Print | Product List | Glossary On
Versions: 1 2 3 4 5 6 7 8 9 10 11 12 13 14 15 16 17 18 19 20 21 22 23 24 25 26 27 28 29 30 31 32 33 34 35 36 37 38 39 40 41 42 43 44 45 46 47 48 49 50
000
AXUS43 KGID 300302
MISGRI

GID CWA HOURLY WEATHER ROUNDUP
NATIONAL WEATHER SERVICE HASTINGS NE
1000 PM CDT MON SEP 29 2014

NOTE: "FAIR" INDICATES FEW OR NO CLOUDS BELOW 12,000 FEET WITH NO
SIGNIFICANT WEATHER AND/OR OBSTRUCTIONS TO VISIBILITY.

...SOUTH CENTRAL NEBRASKA...

CITY           SKY/WX    TMP DP  RH WIND       PRES   REMARKS
GRAND ISLAND   MOCLDY    69  53  56 SE10      29.92R
HASTINGS       MOCLDY    70  52  52 SE10      29.91R
KEARNEY        CLOUDY    70  52  52 E12       29.91R
ORD            CLOUDY    70  53  54 SE12      29.89R
YORK           CLEAR     66  57  72 SE8       29.92S
AURORA         CLEAR     62  54  76 SE3       29.92R
LEXINGTON      PTCLDY    70  55  57 SE15G24   29.86F
HOLDREGE       PTCLDY    69  52  56 SE13      29.89S
HEBRON         CLEAR     64  54  69 SE6       29.91S

...NEBRASKA PANHANDLE...

CITY           SKY/WX    TMP DP  RH WIND       PRES   REMARKS
CHADRON        RAIN      52  52 100 N7        29.83F FOG
ALLIANCE       HVY RAIN  55  54  96 N16       29.77R FOG
SCOTTSBLUFF    RAIN      56  55  97 NW14      29.78F FOG
SIDNEY         LGT RAIN  57  55  93 N12       29.73F

...WESTERN AND NORTH CENTRAL NEBRASKA...

CITY           SKY/WX    TMP DP  RH WIND       PRES   REMARKS
VALENTINE      CLOUDY    66  60  81 E10       29.84F
AINSWORTH      CLOUDY    69  51  52 SE16G23   29.87S
ONEILL         MOCLDY    64  59  83 E8        29.91S
BROKEN BOW     MOCLDY    69  53  56 SE13G22   29.88S
IMPERIAL       TSTM      63  56  78 SW22G39   29.81R
NORTH PLATTE   CLOUDY    72  53  51 SE20G25   29.81R
MCCOOK         CLOUDY    72  53  51 SE18G28   29.81S

...EASTERN NEBRASKA...

CITY           SKY/WX    TMP DP  RH WIND       PRES   REMARKS
NORFOLK        MOCLDY    68  62  81 E8        29.93R
SO SIOUX CITY  CLEAR     64  59  83 E7        29.96S
TEKAMAH        CLEAR     66  61  84 NW3       29.94S
COLUMBUS       CLEAR     68  55  64 E6        29.93R
ALBION         PTCLDY    67  57  69 SE8       29.92S
OMAHA EPPLEY   CLEAR     64  59  83 N3        29.93F
OFFUTT AFB     CLEAR     67  61  79 E6        29.92F
MILLARD        CLEAR     66  61  83 CALM      29.92F
LINCOLN        CLEAR     69  55  60 SE3       29.92F
NEBRASKA CITY  CLEAR     70  49  48 SE6       29.94S
BEATRICE       CLEAR     70  58  65 SE7       29.92S
FALLS CITY     CLEAR     67  57  70 SE6       29.93S

...NORTHERN KANSAS...

CITY           SKY/WX    TMP DP  RH WIND       PRES   REMARKS
GOODLAND       LGT RAIN  57  55  93 SW14G23   29.91R
HILL CITY      CLOUDY    73  53  49 SE16G23   29.85F
NORTON         CLEAR     73  52  46 SE17G24   29.84
PHILLIPSBURG   CLOUDY    73  54  49 SE12G17   29.88R
SMITH CENTER   MOCLDY    72  55  56 SE15      29.90R
BELOIT         CLEAR     70  57  64 E7        29.89R
HAYS           PTCLDY    70  54  56 SE14      29.88F
RUSSELL        PTCLDY    71  55  56 SE14      29.88R
CONCORDIA      CLEAR     67  59  75 SE9       29.91R
SALINA         CLEAR     70  57  63 SE8       29.90S
TOPEKA         CLEAR     69  62  78 CALM      29.94S



USA.gov is the U.S. government's official web portal to all federal, state and local government web resources and services.